Regional Weather Roundup
Issued by NWS

Home | Current Version | Previous Version | Text Only | Print | Product List | Glossary On
Versions: 1 2 3 4 5 6 7 8 9 10 11 12 13 14 15 16 17 18 19 20 21 22 23 24 25 26 27
000
ASUS45 KCYS 171310
RWRWY

WYOMING REGIONAL WEATHER ROUNDUP
NATIONAL WEATHER SERVICE CHEYENNE WY
600 AM MST TUE JAN 17 2017

NOTE:  "FAIR" INDICATES FEW OR NO CLOUDS BELOW 12,000 FEET
WITH NO SIGNIFICANT WEATHER AND/OR OBSTRUCTIONS TO VISIBILITY.

WYZ001-171400-
YELLOWSTONE NATIONAL PARK

CITY           SKY/WX    TMP DP  RH WIND       PRES   REMARKS
LK YELLOWSTONE   N/A    -12 -16  82 CALM      30.15S
W YELLOWSTONE  NOT AVBL

$$
WYZ002>013-054>058-071-098>099-171400-
NORTHERN WYOMING

CITY           SKY/WX    TMP DP  RH WIND       PRES   REMARKS
JACKSON        FAIR     -11 -15  84 CALM      30.21S
CODY           FAIR      14   4  64 CALM      29.97S
GREYBULL       FAIR     -13 -19  75 SE3       30.06F
WORLAND        FAIR      -4  -7  87 CALM      30.04R
SHERIDAN       FAIR       8   0  69 VRB5      29.90S WCI   0
BUFFALO        FAIR      29   2  31 SW7       29.91F WCI  22
GILLETTE       FAIR      17   6  62 CALM      29.92F
HULETT         FAIR      18   9  68 MISG      29.93S
NEWCASTLE      FAIR      12   3  67 CALM      29.99F

$$
WYZ014>020-022>026-101>103-171400-
CENTRAL WYOMING

CITY           SKY/WX    TMP DP  RH WIND       PRES   REMARKS
BIG PINEY      FAIR     -17 -21  82 E3        30.13S
PINEDALE       FAIR     -18 -24  76 CALM      30.13S
DUBOIS         NOT AVBL
LANDER         FAIR      -1  -3  91 CALM      30.04S
RIVERTON       FOG       -7 -10  87 CALM      30.07R VSB 1/4
CASPER         FAIR      20   5  52 SW25G39   30.00F WCI   2
DOUGLAS        FAIR       5   1  83 CALM      29.99F

$$
WYZ021-027>030-104>119-171400-
SOUTHERN WYOMING

CITY           SKY/WX    TMP DP  RH WIND       PRES   REMARKS
EVANSTON       FAIR       6   0  76 S3        30.14R
ROCK SPRINGS   FAIR      -6 -10  83 CALM      30.14R FOG
RAWLINS        FAIR      -6 -13  71 CALM      30.12R
LARAMIE        FAIR      -7 -12  79 CALM      30.03S
CHEYENNE       FAIR      14   8  77 W8        30.00F WCI   3
TORRINGTON     FAIR      12   9  87 E6        30.02S WCI   3

$$




USA.gov is the U.S. government's official web portal to all federal, state and local government web resources and services.